This is the latest recevied weather packets stored in our database for station/object AA4OM-2. If no packets are shown the sender has not sent any weather packets the latest 10 day(s).
| Time | Temp. | Humidity | Pressure | Rain* | Wind** | Luminosity | Snow |
|---|---|---|---|---|---|---|---|
| 1777310555 | 26.11° C | 64% | 1012.5 hPa | 0 mm | - | 366 W/m² | - |
| 1777310252 | 26.67° C | 64% | 1012.8 hPa | 0 mm | - | 216 W/m² | - |
| 1777309950 | 26.67° C | 64% | 1012.5 hPa | 0 mm | - | 282 W/m² | - |
| 1777309648 | 26.67° C | 64% | 1012.6 hPa | 0 mm | - | 376 W/m² | - |
| 1777309344 | 26.11° C | 65% | 1012.8 hPa | 0 mm | - | 443 W/m² | - |
| 1777309043 | 26.11° C | 63% | 1012.7 hPa | 0 mm | - | 687 W/m² | - |
| 1777308739 | 26.11° C | 66% | 1012.9 hPa | 0 mm | - | 393 W/m² | - |
| 1777308434 | 26.11° C | 64% | 1013.1 hPa | 0 mm | - | 258 W/m² | - |
| 1777308130 | 26.11° C | 63% | 1013.1 hPa | 0 mm | - | 266 W/m² | - |
| 1777307827 | 26.67° C | 64% | 1013 hPa | 0 mm | - | 387 W/m² | - |
| 1777307524 | 26.67° C | 65% | 1013.1 hPa | 0 mm | - | 594 W/m² | - |
| 1777307221 | 26.11° C | 65% | 1013.3 hPa | 0 mm | - | 837 W/m² | - |
| 1777306918 | 25.56° C | 66% | 1013 hPa | 0 mm | - | 875 W/m² | - |
| 1777306615 | 25.56° C | 67% | 1012.9 hPa | 0 mm | - | 309 W/m² | - |
| 1777306310 | 25° C | 70% | 1013 hPa | 0 mm | - | 351 W/m² | - |
| 1777306006 | 25° C | 67% | 1012.8 hPa | 0 mm | - | 323 W/m² | - |
| 1777305704 | 25.56° C | 66% | 1013.2 hPa | 0 mm | - | 308 W/m² | - |
| 1777305399 | 25.56° C | 65% | 1013.1 hPa | 0 mm | - | 304 W/m² | - |
| 1777305094 | 25.56° C | 67% | 1013.2 hPa | 0 mm | - | 338 W/m² | - |
| 1777304788 | 25° C | 68% | 1013.2 hPa | 0 mm | - | 393 W/m² | - |
| 1777304486 | 25° C | 67% | 1013 hPa | 0 mm | - | 311 W/m² | - |
| 1777304184 | 25° C | 66% | 1013 hPa | 0 mm | - | 334 W/m² | - |
| 1777303880 | 25° C | 66% | 1013 hPa | 0 mm | - | 356 W/m² | - |
| 1777303577 | 25° C | 67% | 1013.2 hPa | 0 mm | - | 362 W/m² | - |
| 1777303275 | 25° C | 66% | 1013.3 hPa | 0 mm | - | 319 W/m² | - |
* Rain latest hour (hover to see other rain measurements)
** Current wind speed in m/s (hover to see current wind gust speed)